Wind_Speed
3 4 6 6 7 8 8 9 10 10 11 11 11 11 12 13 13 11 12 8 8 6 6 11 14 15 17 18 17 16 13 13 14 6 5 6 4 4 7 10 18 21 21
4 5 6 7 8 8 9 9 10 10 9 10 10 10 10 11 11 12 9 8 7 6 6 7 9 11 15 16 17 17 16 15 15 15 7 6 8 6 6 7 9 20 22
5 6 7 8 7 7 7 9 10 10 10 10 9 8 8 9 9 9 8 7 10 6 7 8 10 10 9 14 15 16 15 16 16 14 14 10 3 8 5 3 8 11 14
5 6 7 7 7 7 8 9 10 10 10 10 9 9 8 7 6 5 6 6 6 7 9 10 11 10 8 9 13 14 14 15 15 15 15 14 12 4 6 9 3 5 11
6 7 7 7 8 8 9 10 10 10 10 10 9 8 7 6 6 5 5 4 3 4 5 13 11 9 11 10 9 11 12 12 14 14 14 14 13 11 4 3 7 6 2
8 8 7 7 7 7 8 10 11 11 11 11 10 8 6 5 4 3 3 3 4 5 5 4 6 12 12 11 11 9 9 11 11 12 12 13 13 13 9 6 4 5 8
8 8 6 6 7 7 7 9 10 10 11 11 10 7 4 2 1 1 1 1 2 3 4 5 5 5 8 16 11 10 9 8 11 11 11 11 11 12 12 12 8 5 5
9 8 6 6 6 6 8 8 8 10 9 10 4 4 3 2 1 2 0 1 1 2 4 5 5 7 6 6 13 10 10 9 8 10 10 10 11 12 12 12 12 9 7
9 8 7 6 6 6 6 7 8 8 6 9 9 5 3 3 4 3 2 2 3 1 2 4 5 6 7 6 7 12 11 10 8 8 8 9 9 10 10 11 12 11 11
9 8 8 7 6 6 6 7 8 8 8 8 10 12 12 8 5 4 5 4 3 3 3 2 4 6 7 7 10 12 11 11 9 8 7 7 8 8 9 10 11 11 11
11 8 7 8 8 7 8 7 7 9 10 9 8 8 8 7 10 8 7 6 5 5 3 2 2 3 7 8 6 12 12 11 11 9 8 10 7 7 8 9 9 10 10
14 11 10 9 8 9 8 8 8 8 9 10 10 9 7 5 6 7 7 6 6 7 5 4 2 3 6 6 9 12 12 12 11 11 9 10 9 9 9 7 7 8 9
18 15 13 10 9 9 8 9 10 10 10 11 10 9 9 7 7 7 7 7 5 6 5 6 5 4 6 6 9 12 13 12 12 11 12 12 10 10 9 9 8 7 8
18 17 15 12 11 9 11 12 11 10 11 11 11 10 9 9 8 7 6 7 5 6 7 6 6 5 6 8 10 12 12 13 13 12 12 12 12 11 11 10 10 10 9
22 20 18 16 14 13 13 13 13 12 13 13 12 11 10 10 10 10 9 7 7 7 8 8 5 8 6 8 11 11 12 15 13 12 12 13 13 12 11 11 12 11 11
27 25 22 19 17 17 16 15 14 15 15 14 14 13 12 12 12 11 9 8 8 7 7 8 7 8 8 7 11 12 13 14 14 12 12 12 13 13 13 13 12 13 13
31 29 24 24 23 22 18 18 16 17 17 17 15 15 14 15 12 11 10 9 8 7 8 7 7 7 7 7 8 11 11 11 9 14 13 12 12 13 13 13 14 14 14
34 32 29 28 27 27 24 22 19 20 21 19 18 18 17 17 16 14 12 11 11 10 9 10 8 7 8 9 9 9 9 9 9 15 15 13 12 11 12 13 14 14 15
37 33 36 34 32 31 30 28 25 26 24 20 20 20 19 19 18 16 15 13 13 13 11 10 10 8 8 8 8 8 8 8 8 14 14 12 10 11 12 13 14 15 16
36 38 36 36 34 37 33 31 29 26 26 24 23 23 22 21 19 18 17 16 14 15 13 12 11 9 9 9 9 6 6 6 8 9 10 10 12 12 12 11 13 14 16
36 39 38 36 39 38 37 36 32 31 29 26 27 26 26 25 24 21 18 16 15 16 15 13 13 10 10 9 7 8 6 7 8 7 6 9 9 9 8 11 11 15 16
41 39 34 39 46 38 41 37 36 33 33 30 29 30 28 29 28 26 24 22 19 17 17 14 13 12 12 11 9 7 7 6 6 6 11 11 10 9 7 7 13 16 17
43 40 39 43 37 40 42 40 39 35 37 34 33 27 26 25 28 27 25 23 24 25 23 17 15 13 13 11 10 10 8 7 8 9 11 11 9 8 10 11 17 15 16
40 42 46 44 38 37 40 42 40 38 37 39 37 35 32 27 27 25 24 23 23 24 26 24 20 14 13 12 11 10 10 10 9 9 9 11 8 11 13 14 18 13 13
34 39 42 43 41 36 38 40 39 41 42 42 41 39 37 31 29 26 25 23 17 15 19 21 20 20 19 17 16 12 11 10 10 10 10 11 10 14 16 13 8 18 23
26 29 32 35 38 37 38 38 40 42 45 44 43 45 38 36 33 28 25 24 23 22 18 20 20 21 21 20 19 17 12 11 10 9 9 8 10 13 12 10 10 18 17
Wind_Direction
175 157 157 145 140 131 131 128 120 116 109 106 101 96 92 93 93 85 78 69 72 78 82 52 42 33 33 28 33 31 22 30 37 350 274 265 277 278 256 237 216 206 223
152 144 137 140 137 137 134 133 135 126 126 119 112 105 96 93 92 89 78 61 48 33 12 357 359 3 32 34 32 34 32 29 33 34 19 265 257 270 287 276 248 236 239
142 134 141 142 139 135 139 144 142 141 131 124 120 120 108 103 99 89 82 75 27 20 359 351 350 351 2 37 31 34 30 25 30 28 37 35 317 251 247 259 252 249 245
143 139 141 140 143 141 146 149 148 143 136 132 125 116 110 105 113 90 76 72 59 29 12 359 356 0 0 356 27 33 29 29 27 28 29 34 36 4 264 237 254 232 234
155 145 146 151 143 146 154 154 154 150 146 141 133 126 123 111 97 82 61 29 14 49 23 359 3 356 355 360 3 25 30 25 24 23 25 24 29 34 19 298 249 254 234
156 153 155 148 133 138 150 153 153 147 150 143 135 135 119 104 91 71 40 44 21 21 34 33 31 353 354 346 350 355 354 18 21 21 24 24 23 23 13 15 312 250 239
161 160 156 142 129 134 149 148 152 156 151 152 131 124 118 221 206 75 76 62 28 20 3 18 30 34 0 351 354 353 352 4 18 17 19 24 21 22 24 26 16 344 262
166 163 159 155 139 137 146 145 152 153 159 163 163 160 188 282 264 228 265 299 319 32 12 6 5 4 22 9 346 356 351 346 357 13 18 20 16 23 20 18 17 8 330
171 168 173 165 155 156 155 165 166 165 173 194 183 194 206 230 197 249 257 234 300 319 348 355 1 357 359 7 14 338 346 345 341 350 10 14 12 16 16 15 16 13 14
181 178 179 180 185 175 179 188 182 191 188 205 224 233 231 224 228 234 238 247 250 268 274 288 336 346 353 358 350 343 340 339 337 332 342 344 3 13 13 8 15 17 14
189 186 186 198 195 191 198 199 204 211 217 212 215 225 231 230 230 232 251 244 231 241 235 249 277 333 338 345 343 332 338 335 331 327 317 319 331 356 355 6 11 9 12
196 196 201 202 200 207 208 210 218 221 221 221 222 223 223 224 235 220 236 230 234 242 228 233 258 308 328 339 334 333 336 333 329 323 313 316 312 310 320 331 343 358 2
205 205 207 206 211 219 222 225 223 222 225 227 228 226 227 224 222 221 221 225 228 241 248 235 243 282 315 329 319 333 330 332 327 320 313 315 308 305 304 308 311 314 321
214 214 215 215 219 226 227 229 234 237 238 236 237 237 235 239 238 227 224 214 234 235 239 239 241 253 303 310 317 333 332 336 327 319 311 306 305 302 301 300 300 300 299
222 222 222 226 227 231 234 234 234 239 244 242 243 245 241 246 246 241 236 228 226 241 240 248 238 258 286 312 315 332 331 326 325 318 311 309 305 302 299 296 295 293 293
227 228 229 233 236 240 239 246 243 239 243 247 245 246 244 251 249 249 250 246 240 231 237 222 240 238 278 299 309 327 329 325 328 321 316 308 303 299 297 295 293 294 294
231 235 237 240 239 243 242 247 247 253 248 243 245 246 245 248 244 246 245 246 244 235 229 244 227 247 283 288 302 321 325 328 316 324 318 309 302 299 297 296 294 292 291
235 237 240 242 245 243 246 244 243 248 246 245 249 244 241 242 239 239 233 234 238 235 223 234 236 253 270 278 298 315 316 318 317 312 317 311 306 302 299 295 292 290 287
237 240 240 242 246 249 249 243 243 240 245 243 248 245 238 239 236 229 228 227 234 233 235 234 237 241 259 277 294 311 311 317 321 314 318 313 318 315 306 300 296 289 290
239 242 244 246 251 249 248 242 245 247 249 245 249 249 239 237 233 229 231 230 226 232 230 230 241 235 249 252 287 288 303 308 312 309 316 321 317 315 307 304 297 293 292
243 247 244 249 251 249 250 248 245 246 249 245 248 248 244 241 238 228 225 227 225 230 231 230 236 239 245 253 259 261 288 302 314 295 302 316 312 312 306 326 319 302 297
244 249 245 247 251 251 249 253 244 242 246 240 246 247 242 246 244 238 237 232 219 227 231 232 241 242 242 244 249 263 276 296 304 301 312 313 313 310 305 301 291 295 299
247 245 244 247 254 253 249 252 249 242 245 245 242 235 235 237 238 239 238 239 237 236 226 223 233 239 250 246 243 254 268 274 281 287 305 307 313 300 302 302 305 302 301
248 247 246 249 252 258 250 252 251 245 246 248 240 239 235 231 240 238 244 241 240 243 240 239 237 237 241 246 249 255 261 276 284 292 292 295 295 302 300 306 307 299 300
246 248 247 247 250 260 253 253 252 247 246 247 246 241 237 239 244 239 238 241 239 234 251 245 244 243 253 254 250 245 249 261 277 283 286 281 297 308 305 305 289 302 320
248 250 252 253 255 259 257 255 253 249 246 248 246 242 237 238 239 230 234 242 241 237 231 256 248 251 257 259 256 251 249 255 265 287 271 284 302 319 318 298 300 309 308
Height
1587 1587 1587 1587 1587 1587 1587 1589 1590 1591 1591 1592 1592 1593 1594 1595 1597 1598 1595 1595 1595 1594 1592 1591 1589 1587 1584 1581 1579 1578 1576 1574 1572 1571 1571 1570 1569 1569 1568 1568 1567 1569 1571
1585 1585 1585 1586 1586 1587 1588 1589 1590 1591 1592 1592 1592 1593 1595 1596 1596 1598 1599 1595 1595 1594 1593 1591 1589 1587 1585 1584 1581 1580 1578 1576 1573 1571 1570 1568 1568 1568 1567 1567 1567 1568 1569
1584 1585 1585 1586 1586 1586 1587 1588 1589 1591 1592 1594 1593 1594 1595 1596 1596 1598 1599 1600 1597 1594 1592 1590 1588 1587 1586 1585 1583 1581 1580 1577 1574 1572 1570 1568 1567 1566 1567 1566 1566 1566 1566
1583 1584 1586 1586 1587 1587 1587 1588 1590 1592 1592 1594 1594 1595 1596 1597 1596 1597 1598 1599 1599 1599 1592 1590 1588 1586 1585 1583 1582 1582 1581 1579 1576 1574 1571 1569 1567 1566 1565 1565 1565 1564 1564
1583 1584 1585 1586 1586 1586 1586 1587 1589 1591 1591 1592 1593 1595 1596 1597 1598 1598 1597 1596 1596 1595 1595 1589 1588 1586 1584 1583 1581 1580 1581 1579 1577 1574 1572 1570 1568 1566 1565 1564 1563 1564 1564
1582 1582 1584 1585 1585 1586 1586 1586 1587 1589 1591 1592 1594 1594 1596 1598 1598 1597 1597 1596 1594 1594 1593 1590 1590 1585 1584 1582 1580 1579 1577 1577 1576 1575 1573 1571 1569 1567 1565 1564 1563 1563 1563
1582 1583 1584 1584 1585 1586 1586 1587 1587 1589 1590 1591 1592 1595 1595 1595 1596 1596 1596 1595 1593 1591 1589 1589 1589 1587 1586 1580 1578 1577 1576 1575 1575 1574 1572 1571 1569 1567 1566 1564 1563 1562 1561
1580 1582 1583 1584 1584 1585 1585 1586 1587 1588 1590 1593 1596 1596 1596 1598 1595 1595 1595 1594 1592 1592 1591 1588 1585 1584 1584 1582 1577 1576 1575 1573 1572 1572 1572 1570 1569 1567 1566 1565 1563 1561 1560
1579 1580 1582 1583 1583 1584 1584 1585 1585 1587 1589 1589 1591 1593 1593 1592 1594 1593 1592 1593 1591 1592 1591 1588 1585 1584 1582 1581 1579 1575 1573 1572 1571 1570 1570 1570 1568 1567 1566 1564 1563 1561 1559
1577 1578 1579 1580 1581 1581 1583 1584 1584 1585 1587 1587 1586 1587 1587 1588 1590 1591 1590 1589 1588 1586 1585 1586 1584 1582 1580 1580 1576 1573 1572 1570 1569 1569 1568 1567 1566 1565 1565 1563 1562 1561 1559
1575 1576 1577 1579 1580 1580 1580 1581 1582 1582 1583 1585 1585 1584 1583 1584 1584 1587 1587 1588 1588 1587 1585 1584 1582 1581 1579 1577 1577 1572 1570 1568 1567 1566 1566 1565 1564 1563 1562 1561 1561 1559 1558
1572 1573 1574 1576 1577 1578 1578 1579 1579 1580 1580 1581 1582 1583 1584 1584 1584 1584 1585 1585 1586 1584 1584 1583 1581 1580 1578 1575 1573 1571 1569 1567 1565 1564 1563 1562 1561 1560 1559 1558 1558 1558 1557
1568 1570 1572 1573 1574 1575 1576 1576 1576 1575 1576 1576 1576 1577 1579 1580 1580 1581 1581 1583 1583 1583 1583 1582 1581 1578 1576 1574 1572 1570 1567 1565 1564 1562 1560 1559 1559 1558 1557 1556 1556 1556 1555
1565 1567 1569 1570 1571 1571 1572 1573 1573 1573 1573 1573 1574 1573 1574 1574 1575 1577 1579 1580 1580 1579 1580 1580 1578 1577 1575 1572 1570 1569 1566 1563 1562 1560 1558 1557 1556 1556 1555 1554 1554 1553 1553
1561 1563 1565 1566 1567 1568 1569 1570 1570 1570 1570 1570 1571 1572 1573 1571 1572 1571 1573 1574 1576 1576 1576 1577 1579 1574 1573 1570 1568 1567 1565 1560 1559 1557 1556 1555 1554 1553 1553 1552 1551 1551 1551
1556 1558 1559 1562 1564 1565 1566 1567 1568 1567 1568 1569 1568 1569 1570 1571 1571 1572 1572 1572 1571 1573 1574 1573 1574 1573 1570 1568 1565 1564 1562 1559 1555 1554 1553 1552 1551 1550 1550 1549 1548 1548 1547
1549 1552 1556 1557 1559 1560 1562 1562 1562 1563 1564 1564 1564 1563 1565 1566 1568 1568 1569 1572 1572 1570 1571 1571 1569 1568 1567 1566 1563 1561 1559 1557 1556 1551 1550 1549 1548 1547 1547 1546 1545 1544 1544
1543 1546 1549 1551 1553 1554 1556 1556 1557 1556 1556 1557 1559 1559 1559 1559 1561 1562 1564 1566 1568 1566 1565 1567 1566 1566 1565 1563 1560 1558 1556 1555 1553 1549 1548 1547 1545 1544 1544 1542 1541 1541 1540
1535 1539 1540 1542 1544 1546 1548 1549 1549 1548 1549 1551 1553 1554 1554 1554 1555 1555 1557 1558 1561 1562 1560 1562 1562 1559 1560 1560 1558 1556 1554 1552 1551 1547 1545 1544 1543 1542 1540 1539 1538 1537 1536
1528 1529 1532 1535 1537 1537 1539 1542 1543 1545 1545 1546 1547 1548 1549 1548 1549 1551 1552 1553 1554 1558 1556 1556 1557 1554 1556 1555 1552 1553 1553 1551 1549 1546 1544 1542 1540 1539 1537 1536 1534 1533 1532
1519 1519 1523 1526 1525 1529 1531 1531 1533 1536 1537 1539 1540 1541 1542 1542 1542 1544 1546 1547 1548 1552 1553 1551 1551 1551 1551 1553 1551 1549 1548 1547 1546 1543 1542 1541 1539 1538 1537 1533 1532 1529 1528
1507 1511 1515 1515 1515 1518 1521 1522 1524 1527 1528 1530 1531 1531 1531 1532 1535 1536 1537 1540 1541 1545 1547 1547 1548 1547 1547 1546 1545 1546 1545 1543 1543 1541 1539 1538 1536 1535 1534 1532 1528 1526 1524
1498 1501 1504 1503 1505 1508 1511 1514 1515 1516 1517 1518 1519 1522 1523 1524 1523 1527 1529 1530 1532 1536 1538 1540 1540 1542 1544 1543 1540 1539 1541 1539 1539 1539 1536 1533 1533 1533 1531 1528 1524 1521 1520
1488 1491 1492 1496 1498 1500 1503 1506 1508 1508 1508 1507 1509 1510 1512 1514 1516 1520 1523 1523 1524 1528 1532 1532 1532 1532 1535 1538 1536 1534 1535 1534 1534 1534 1533 1531 1530 1528 1526 1523 1519 1517 1516
1479 1481 1484 1487 1489 1491 1493 1497 1500 1499 1499 1500 1500 1499 1500 1504 1507 1512 1515 1517 1517 1524 1528 1527 1527 1527 1528 1529 1530 1530 1530 1531 1529 1529 1529 1527 1524 1522 1519 1518 1518 1512 1510
1473 1476 1478 1479 1481 1482 1482 1486 1488 1488 1487 1488 1488 1489 1493 1496 1500 1504 1507 1512 1511 1511 1516 1520 1521 1521 1523 1523 1523 1523 1525 1525 1526 1525 1523 1523 1521 1519 1514 1512 1512 1510 1508